PAS729 WAHI-WADD

Flight info

Callsign PAS729
Flight time 0h 57m
Altitude 37000
Route WAHI/11 SO2A SO W17N PURWO BA T3 MOVMO MOVMO1E WADD/09
Aircraft A20N/M-VGDW/C

Departure

Time 2026-04-20 15:00
Airport Yogyakarta International Airport (WAHI)

Arrival

Time 2026-04-20 15:57
Airport Denpasar I Gusti Ngurah Rai International Airport (WADD)
Time Latitude Longitude Altitude Speed Heading
2026-04-20 14:59 -7.87489 110.16514 19283 ft 407 kts 35°
2026-04-20 15:00 -7.85147 110.18156 19691 ft 409 kts 35°
2026-04-20 15:00 -7.82822 110.19833 20084 ft 412 kts 39°
2026-04-20 15:00 -7.80955 110.21977 20393 ft 417 kts 58°
2026-04-20 15:00 -7.79830 110.24677 20751 ft 421 kts 75°
2026-04-20 15:01 -7.79541 110.27636 21099 ft 426 kts 90°
2026-04-20 15:01 -7.79649 110.30614 21445 ft 429 kts 89°
2026-04-20 15:01 -7.79570 110.33642 21757 ft 432 kts 85°
2026-04-20 15:01 -7.79267 110.36664 22087 ft 435 kts 82°
2026-04-20 15:02 -7.78875 110.39675 22410 ft 437 kts 78°
2026-04-20 15:02 -7.78023 110.42630 22729 ft 438 kts 66°
2026-04-20 15:02 -7.76603 110.45357 23088 ft 438 kts 55°
2026-04-20 15:02 -7.74729 110.47778 23442 ft 439 kts 49°
2026-04-20 15:03 -7.72724 110.50088 23777 ft 441 kts 47°
2026-04-20 15:03 -7.70681 110.52413 24097 ft 444 kts 47°
2026-04-20 15:03 -7.68643 110.54742 24424 ft 446 kts 47°
2026-04-20 15:03 -7.66577 110.57119 24756 ft 448 kts 48°
2026-04-20 15:04 -7.64527 110.59487 25081 ft 449 kts 48°
2026-04-20 15:04 -7.62494 110.61841 25400 ft 451 kts 48°
2026-04-20 15:04 -7.60421 110.64246 25709 ft 453 kts 48°
2026-04-20 15:04 -7.58346 110.66653 26011 ft 454 kts 48°
2026-04-20 15:05 -7.56277 110.69052 26293 ft 456 kts 48°
2026-04-20 15:05 -7.54146 110.71461 26563 ft 457 kts 44°
2026-04-20 15:05 -7.51613 110.73367 26785 ft 457 kts 27°
2026-04-20 15:05 -7.48633 110.74496 27062 ft 456 kts 12°
2026-04-20 15:06 -7.45498 110.74818 27321 ft 456 kts
2026-04-20 15:06 -7.42287 110.74860 27589 ft 458 kts
2026-04-20 15:06 -7.39085 110.74889 27798 ft 460 kts
2026-04-20 15:06 -7.35864 110.74929 28029 ft 461 kts
2026-04-20 15:07 -7.32677 110.74979 28321 ft 460 kts
2026-04-20 15:07 -7.29484 110.75056 28661 ft 458 kts
2026-04-20 15:07 -7.26360 110.75603 28955 ft 457 kts 17°
2026-04-20 15:07 -7.23407 110.76849 29283 ft 455 kts 29°
2026-04-20 15:08 -7.20845 110.78657 29584 ft 456 kts 41°
2026-04-20 15:08 -7.18685 110.81016 29881 ft 456 kts 53°
2026-04-20 15:08 -7.17077 110.83787 30176 ft 458 kts 65°
2026-04-20 15:08 -7.16016 110.86809 30484 ft 458 kts 71°
2026-04-20 15:09 -7.15096 110.89853 30797 ft 458 kts 71°
2026-04-20 15:09 -7.14180 110.92929 31098 ft 457 kts 71°
2026-04-20 15:09 -7.13275 110.95959 31382 ft 457 kts 71°
2026-04-20 15:09 -7.12348 110.99033 31682 ft 456 kts 71°
2026-04-20 15:10 -7.11428 111.02065 31977 ft 455 kts 71°
2026-04-20 15:10 -7.10501 111.05104 32276 ft 454 kts 71°
2026-04-20 15:10 -7.09580 111.08122 32565 ft 453 kts 71°
2026-04-20 15:10 -7.08645 111.11179 32889 ft 452 kts 71°
2026-04-20 15:11 -7.07728 111.14178 33206 ft 451 kts 71°
2026-04-20 15:11 -7.06806 111.17194 33520 ft 450 kts 71°
2026-04-20 15:11 -7.05890 111.20191 33805 ft 449 kts 71°
2026-04-20 15:11 -7.04973 111.23194 34063 ft 449 kts 71°
2026-04-20 15:12 -7.04055 111.26196 34319 ft 449 kts 71°
2026-04-20 15:12 -7.03146 111.29165 34567 ft 449 kts 71°
2026-04-20 15:12 -7.02221 111.32187 34812 ft 448 kts 72°
2026-04-20 15:12 -7.01479 111.35204 35034 ft 450 kts 77°
2026-04-20 15:13 -7.01067 111.38335 35236 ft 452 kts 84°
2026-04-20 15:13 -7.01006 111.41509 35389 ft 454 kts 90°
2026-04-20 15:13 -7.01302 111.44682 35517 ft 457 kts 97°
2026-04-20 15:13 -7.01951 111.47800 35646 ft 460 kts 103°
2026-04-20 15:14 -7.02961 111.50871 35784 ft 463 kts 109°
2026-04-20 15:14 -7.04174 111.53833 35934 ft 463 kts 111°
2026-04-20 15:14 -7.05438 111.56812 36066 ft 464 kts 111°
2026-04-20 15:14 -7.06709 111.59795 36179 ft 465 kts 111°
2026-04-20 15:15 -7.07983 111.62799 36289 ft 466 kts 111°
2026-04-20 15:15 -7.09252 111.65807 36405 ft 466 kts 111°
2026-04-20 15:15 -7.10509 111.68796 36516 ft 467 kts 111°
2026-04-20 15:16 -7.13034 111.74816 36694 ft 468 kts 111°
2026-04-20 15:16 -7.15568 111.80876 36871 ft 469 kts 111°
2026-04-20 15:17 -7.18092 111.86915 36904 ft 470 kts 110°
2026-04-20 15:17 -7.20635 111.93000 36906 ft 470 kts 110°
2026-04-20 15:18 -7.23153 111.99032 36906 ft 470 kts 110°
2026-04-20 15:18 -7.25681 112.05088 36903 ft 470 kts 110°
2026-04-20 15:19 -7.28204 112.11134 36907 ft 470 kts 110°
2026-04-20 15:19 -7.30744 112.17227 36909 ft 470 kts 111°
2026-04-20 15:20 -7.33267 112.23282 36913 ft 469 kts 110°
2026-04-20 15:20 -7.35773 112.29295 36914 ft 469 kts 110°
2026-04-20 15:21 -7.38307 112.35378 36913 ft 469 kts 111°
2026-04-20 15:21 -7.40811 112.41396 36916 ft 468 kts 110°
2026-04-20 15:22 -7.43330 112.47450 36912 ft 468 kts 111°
2026-04-20 15:22 -7.45856 112.53522 36911 ft 468 kts 111°
2026-04-20 15:23 -7.48366 112.59559 36915 ft 468 kts 111°
2026-04-20 15:23 -7.50862 112.65562 36911 ft 468 kts 110°
2026-04-20 15:24 -7.53375 112.71616 36922 ft 468 kts 110°
2026-04-20 15:24 -7.55887 112.77669 36919 ft 468 kts 111°
2026-04-20 15:25 -7.58394 112.83707 36929 ft 468 kts 110°
2026-04-20 15:25 -7.60909 112.89771 36934 ft 468 kts 110°
2026-04-20 15:26 -7.63405 112.95789 36942 ft 468 kts 110°
2026-04-20 15:26 -7.65906 113.01823 36957 ft 467 kts 111°
2026-04-20 15:27 -7.68415 113.07884 36952 ft 467 kts 111°
2026-04-20 15:27 -7.70908 113.13903 36955 ft 467 kts 110°
2026-04-20 15:28 -7.73406 113.19938 36965 ft 467 kts 110°
2026-04-20 15:28 -7.75903 113.25973 36959 ft 467 kts 110°
2026-04-20 15:29 -7.78395 113.31999 36964 ft 467 kts 110°
2026-04-20 15:29 -7.80882 113.38017 36976 ft 467 kts 110°
2026-04-20 15:30 -7.83390 113.44089 37007 ft 467 kts 110°
2026-04-20 15:30 -7.85867 113.50088 37031 ft 467 kts 110°
2026-04-20 15:31 -7.88370 113.56152 37050 ft 467 kts 110°
2026-04-20 15:31 -7.90856 113.62177 37056 ft 467 kts 110°
2026-04-20 15:31 -7.92103 113.65203 36729 ft 470 kts 110°
2026-04-20 15:32 -7.93372 113.68281 35761 ft 473 kts 110°
2026-04-20 15:32 -7.94619 113.71307 34976 ft 471 kts 110°
2026-04-20 15:32 -7.95878 113.74360 34210 ft 469 kts 110°
2026-04-20 15:32 -7.97117 113.77371 33472 ft 466 kts 110°
2026-04-20 15:33 -7.98355 113.80373 32736 ft 464 kts 111°
2026-04-20 15:33 -7.99822 113.83225 32047 ft 465 kts 121°
2026-04-20 15:33 -8.01852 113.85799 31290 ft 469 kts 132°
2026-04-20 15:33 -8.04323 113.87923 30462 ft 474 kts 143°
2026-04-20 15:34 -8.07238 113.89574 29588 ft 479 kts 155°
2026-04-20 15:34 -8.10413 113.90622 28683 ft 484 kts 167°
2026-04-20 15:34 -8.13725 113.91140 27800 ft 487 kts 172°
2026-04-20 15:34 -8.17093 113.91536 27198 ft 482 kts 173°
2026-04-20 15:35 -8.20402 113.91907 26668 ft 476 kts 173°
2026-04-20 15:35 -8.23697 113.92285 26124 ft 471 kts 173°
2026-04-20 15:35 -8.26918 113.92667 25578 ft 467 kts 173°
2026-04-20 15:35 -8.30158 113.93060 25016 ft 462 kts 172°
2026-04-20 15:36 -8.33305 113.93446 24470 ft 458 kts 172°
2026-04-20 15:36 -8.36495 113.93841 23909 ft 454 kts 172°
2026-04-20 15:36 -8.39608 113.94227 23375 ft 450 kts 172°
2026-04-20 15:36 -8.42707 113.94695 22791 ft 447 kts 165°
2026-04-20 15:37 -8.45524 113.95962 22110 ft 444 kts 144°
2026-04-20 15:37 -8.47699 113.98139 21400 ft 442 kts 124°
2026-04-20 15:37 -8.49166 114.00807 20718 ft 439 kts 115°
2026-04-20 15:37 -8.50499 114.03553 20107 ft 434 kts 115°
2026-04-20 15:38 -8.51828 114.06238 19290 ft 424 kts 116°
2026-04-20 15:38 -8.53146 114.08836 18635 ft 409 kts 116°
2026-04-20 15:38 -8.54461 114.11381 18122 ft 402 kts 117°
2026-04-20 15:38 -8.55751 114.13852 17629 ft 397 kts 117°
2026-04-20 15:39 -8.57020 114.16270 17142 ft 392 kts 117°
2026-04-20 15:39 -8.58294 114.18689 16627 ft 389 kts 117°
2026-04-20 15:39 -8.59569 114.21107 16094 ft 386 kts 117°
2026-04-20 15:39 -8.60827 114.23489 15556 ft 384 kts 117°
2026-04-20 15:40 -8.62079 114.25857 15005 ft 382 kts 117°
2026-04-20 15:40 -8.63336 114.28235 14455 ft 380 kts 117°
2026-04-20 15:40 -8.64563 114.30557 13986 ft 375 kts 117°
2026-04-20 15:40 -8.65788 114.32873 13472 ft 372 kts 117°
2026-04-20 15:41 -8.66999 114.35165 12929 ft 369 kts 117°
2026-04-20 15:41 -8.68190 114.37416 12397 ft 367 kts 117°
2026-04-20 15:41 -8.69395 114.39693 11892 ft 363 kts 117°
2026-04-20 15:41 -8.70568 114.41914 11392 ft 359 kts 117°
2026-04-20 15:42 -8.71734 114.44119 10955 ft 353 kts 117°
2026-04-20 15:42 -8.72854 114.46237 10773 ft 331 kts 117°
2026-04-20 15:42 -8.73912 114.48240 10618 ft 306 kts 117°
2026-04-20 15:42 -8.74873 114.50059 10472 ft 284 kts 117°
2026-04-20 15:43 -8.75805 114.51824 10338 ft 284 kts 117°
2026-04-20 15:43 -8.76721 114.53561 10076 ft 280 kts 117°
2026-04-20 15:43 -8.77641 114.55306 9662 ft 280 kts 117°
2026-04-20 15:43 -8.78546 114.57018 9269 ft 279 kts 117°
2026-04-20 15:44 -8.79465 114.58759 8904 ft 277 kts 117°
2026-04-20 15:44 -8.80354 114.60445 8685 ft 269 kts 117°
2026-04-20 15:44 -8.81221 114.62087 8515 ft 260 kts 117°
2026-04-20 15:44 -8.82057 114.63671 8334 ft 250 kts 117°
2026-04-20 15:45 -8.82867 114.65206 8105 ft 249 kts 117°
2026-04-20 15:45 -8.83685 114.66759 7819 ft 254 kts 116°
2026-04-20 15:45 -8.84277 114.68428 7478 ft 253 kts 95°
2026-04-20 15:45 -8.84075 114.70169 7154 ft 254 kts 71°
2026-04-20 15:46 -8.83398 114.71815 6831 ft 253 kts 68°
2026-04-20 15:46 -8.82690 114.73482 5824 ft 271 kts 68°
2026-04-20 15:46 -8.81958 114.75255 4711 ft 284 kts 67°
2026-04-20 15:46 -8.80797 114.76849 4111 ft 278 kts 40°
2026-04-20 15:47 -8.79145 114.77681 3990 ft 257 kts 19°
2026-04-20 15:47 -8.77430 114.78156 3986 ft 247 kts 16°
2026-04-20 15:47 -8.75802 114.78551 3983 ft 235 kts 15°
2026-04-20 15:47 -8.74199 114.78928 3988 ft 235 kts 15°
2026-04-20 15:48 -8.72603 114.79303 3991 ft 235 kts 15°
2026-04-20 15:48 -8.70973 114.79688 3999 ft 247 kts 15°
2026-04-20 15:48 -8.69303 114.80253 3970 ft 249 kts 35°
2026-04-20 15:48 -8.68227 114.81512 3842 ft 234 kts 73°
2026-04-20 15:49 -8.68092 114.83100 3727 ft 226 kts 100°
2026-04-20 15:49 -8.68642 114.84557 3585 ft 224 kts 123°
2026-04-20 15:49 -8.69695 114.85703 3393 ft 220 kts 136°
2026-04-20 15:49 -8.70834 114.86717 3206 ft 214 kts 137°
2026-04-20 15:50 -8.71933 114.87714 3034 ft 208 kts 136°
2026-04-20 15:50 -8.72978 114.88690 2997 ft 202 kts 135°
2026-04-20 15:50 -8.74001 114.89668 2994 ft 204 kts 135°
2026-04-20 15:50 -8.74967 114.90715 3036 ft 199 kts 122°
2026-04-20 15:51 -8.75457 114.91950 3028 ft 182 kts 100°
2026-04-20 15:51 -8.75591 114.93162 2984 ft 165 kts 95°
2026-04-20 15:51 -8.75650 114.94254 2962 ft 153 kts 91°
2026-04-20 15:51 -8.75657 114.95324 2983 ft 153 kts 90°
2026-04-20 15:52 -8.75638 114.96411 2988 ft 153 kts 89°
2026-04-20 15:52 -8.75608 114.97481 2994 ft 152 kts 89°
2026-04-20 15:52 -8.75571 114.98542 2995 ft 152 kts 88°
2026-04-20 15:53 -8.75485 115.00691 2721 ft 152 kts 88°
2026-04-20 15:53 -8.75441 115.01760 2526 ft 151 kts 88°
2026-04-20 15:53 -8.75397 115.02816 2340 ft 152 kts 88°
2026-04-20 15:53 -8.75354 115.03870 2142 ft 148 kts 88°
2026-04-20 15:54 -8.75312 115.04893 1938 ft 144 kts 88°
2026-04-20 15:54 -8.75271 115.05893 1761 ft 143 kts 88°
2026-04-20 15:54 -8.75231 115.06895 1574 ft 142 kts 88°
2026-04-20 15:54 -8.75191 115.07900 1392 ft 142 kts 88°
2026-04-20 15:55 -8.75150 115.08894 1210 ft 142 kts 88°
2026-04-20 15:55 -8.75110 115.09892 1031 ft 141 kts 88°
2026-04-20 15:55 -8.75070 115.10883 847 ft 141 kts 88°
2026-04-20 15:55 -8.75023 115.11858 674 ft 140 kts 89°
2026-04-20 15:56 -8.74991 115.12844 497 ft 140 kts 88°
2026-04-20 15:56 -8.74951 115.13825 313 ft 140 kts 89°
2026-04-20 15:56 -8.74917 115.14800 150 ft 139 kts 89°
2026-04-20 15:56 -8.74878 115.15778 17 ft 134 kts 89°
2026-04-20 15:57 -8.74848 115.16593 18 ft 91 kts 89°
2026-04-20 15:57 -8.74828 115.17059 18 ft 43 kts 88°
2026-04-20 15:57 -8.74806 115.17284 18 ft 26 kts 55°
2026-04-20 15:57 -8.74706 115.17311 20 ft 4 kts 359°
2026-04-20 15:58 -8.74678 115.17306 20 ft 4 kts 333°
2026-04-20 15:58 -8.74660 115.17279 20 ft 5 kts 287°
2026-04-20 15:58 -8.74656 115.17236 20 ft 7 kts 269°
2026-04-20 15:58 -8.74658 115.17174 18 ft 10 kts 268°
2026-04-20 15:59 -8.74661 115.17096 18 ft 8 kts 268°
2026-04-20 15:59 -8.74648 115.17073 19 ft 3 kts 336°
2026-04-20 15:59 -8.74626 115.17069 19 ft 2 kts 354°
2026-04-20 15:59 -8.74604 115.17067 20 ft 4 kts 356°
2026-04-20 16:00 -8.74571 115.17065 21 ft 4 kts 357°
2026-04-20 16:00 -8.74540 115.17064 21 ft 4 kts 358°
2026-04-20 16:00 -8.74531 115.17063 21 ft 0 kts 358°